This is the latest recevied weather packets stored in our database for station/object AE0NK. If no packets are shown the sender has not sent any weather packets the latest 10 day(s).
| Time | Temp. | Humidity | Pressure | Rain* | Wind** | Luminosity | Snow |
|---|---|---|---|---|---|---|---|
| 1777820305 | 14.44° C | 49% | 1010 hPa | 0 mm | - | 617 W/m² | - |
| 1777820002 | 13.89° C | 50% | 1010.1 hPa | 0 mm | - | 589 W/m² | - |
| 1777819698 | 13.33° C | 53% | 1010.2 hPa | 0 mm | - | 577 W/m² | - |
| 1777819395 | 12.78° C | 54% | 1010.3 hPa | 0 mm | - | 559 W/m² | - |
| 1777819093 | 12.22° C | 55% | 1010.3 hPa | 0 mm | - | 192 W/m² | - |
| 1777818792 | 12.22° C | 56% | 1010.4 hPa | 0 mm | - | 257 W/m² | - |
| 1777818510 | 11.67° C | 57% | 1010.4 hPa | 0 mm | - | 237 W/m² | - |
| 1777818207 | 11.67° C | 56% | 1010.5 hPa | 0 mm | - | 128 W/m² | - |
| 1777817905 | 11.67° C | 55% | 1010.6 hPa | 0 mm | - | 74 W/m² | - |
| 1777817602 | 11.67° C | 55% | 1010.6 hPa | 0 mm | - | 35 W/m² | - |
| 1777817302 | 11.67° C | 56% | 1010.7 hPa | 0 mm | - | 21 W/m² | - |
| 1777817001 | 11.67° C | 55% | 1010.8 hPa | 0 mm | - | 35 W/m² | - |
| 1777816695 | 11.11° C | 56% | 1010.7 hPa | 0 mm | - | 69 W/m² | - |
| 1777816394 | 11.11° C | 55% | 1010.6 hPa | 0 mm | - | 54 W/m² | - |
| 1777816093 | 11.11° C | 55% | 1010.7 hPa | 0 mm | - | 86 W/m² | - |
| 1777815811 | 11.11° C | 55% | 1010.8 hPa | 0 mm | - | 26 W/m² | - |
| 1777815510 | 11.11° C | 55% | 1011 hPa | 0 mm | - | 28 W/m² | - |
| 1777815209 | 11.11° C | 56% | 1011 hPa | 0 mm | - | 33 W/m² | - |
| 1777814906 | 11.11° C | 55% | 1011.2 hPa | 0 mm | - | 62 W/m² | - |
| 1777814604 | 11.11° C | 55% | 1011.2 hPa | 0 mm | - | 35 W/m² | - |
| 1777814303 | 11.11° C | 56% | 1011.4 hPa | 0 mm | - | 26 W/m² | - |
| 1777814000 | 11.11° C | 55% | 1011.3 hPa | 0 mm | - | 30 W/m² | - |
| 1777813692 | 10.56° C | 55% | 1011.5 hPa | 0 mm | - | 14 W/m² | - |
| 1777813410 | 10.56° C | 55% | 1011.8 hPa | 0 mm | - | 7 W/m² | - |
| 1777813105 | 10.56° C | 55% | 1012 hPa | 0 mm | - | 14 W/m² | - |
* Rain latest hour (hover to see other rain measurements)
** Current wind speed in m/s (hover to see current wind gust speed)